TimeEDT,TemperatureF,Dew PointF,Humidity,Sea Level PressureIn,VisibilityMPH,Wind Direction,Wind SpeedMPH,Gust SpeedMPH,PrecipitationIn,Events,Conditions,WindDirDegrees,DateUTC
12:15 AM,37.4,33.8,87,30.07,10.0,South,11.5,-,N/A,,Clear,190,2014-04-03 04:15:00
12:35 AM,37.4,33.8,87,30.07,10.0,South,10.4,-,N/A,,Clear,190,2014-04-03 04:35:00
12:55 AM,37.4,35.6,93,30.07,10.0,SSW,11.5,-,N/A,,Clear,200,2014-04-03 04:55:00
1:15 AM,37.4,33.8,87,30.07,10.0,SSW,9.2,-,N/A,,Clear,200,2014-04-03 05:15:00
1:35 AM,37.4,33.8,87,30.07,10.0,South,9.2,-,N/A,,Clear,190,2014-04-03 05:35:00
1:55 AM,37.4,33.8,87,30.06,10.0,South,8.1,-,N/A,,Clear,190,2014-04-03 05:55:00
2:15 AM,37.4,33.8,87,30.06,10.0,South,9.2,-,N/A,,Clear,190,2014-04-03 06:15:00
2:35 AM,37.4,33.8,87,30.06,10.0,SSW,8.1,-,N/A,,Clear,210,2014-04-03 06:35:00
2:55 AM,35.6,33.8,93,30.06,10.0,SSW,6.9,-,N/A,,Clear,210,2014-04-03 06:55:00
3:15 AM,35.6,33.8,93,30.05,10.0,SW,8.1,-,N/A,,Clear,220,2014-04-03 07:15:00
3:35 AM,35.6,33.8,93,30.05,10.0,SSW,8.1,-,N/A,,Clear,210,2014-04-03 07:35:00
3:55 AM,35.6,33.8,93,30.05,10.0,SW,6.9,-,N/A,,Clear,230,2014-04-03 07:55:00
4:15 AM,35.6,32.0,87,30.05,10.0,SW,8.1,-,N/A,,Clear,230,2014-04-03 08:15:00
4:35 AM,35.6,33.8,93,30.05,10.0,SW,5.8,-,N/A,,Clear,230,2014-04-03 08:35:00
4:55 AM,35.6,33.8,93,30.06,10.0,SW,5.8,-,N/A,,Clear,230,2014-04-03 08:55:00
5:15 AM,33.8,33.8,100,30.05,10.0,SW,5.8,-,N/A,,Clear,230,2014-04-03 09:15:00
5:35 AM,33.8,32.0,93,30.05,10.0,WSW,6.9,-,N/A,,Clear,240,2014-04-03 09:35:00
5:55 AM,33.8,30.2,87,30.05,10.0,WSW,5.8,-,N/A,,Clear,250,2014-04-03 09:55:00
6:15 AM,33.8,32.0,93,30.05,10.0,West,4.6,-,N/A,,Clear,260,2014-04-03 10:15:00
6:35 AM,33.8,32.0,93,30.06,10.0,West,3.5,-,N/A,,Clear,260,2014-04-03 10:35:00
6:55 AM,35.6,33.8,93,30.07,10.0,WNW,4.6,-,N/A,,Clear,290,2014-04-03 10:55:00
7:15 AM,37.4,33.8,87,30.07,10.0,WNW,8.1,-,N/A,,Clear,300,2014-04-03 11:15:00
7:35 AM,39.2,32.0,75,30.07,10.0,WNW,6.9,-,0.01,,Clear,300,2014-04-03 11:35:00
7:55 AM,39.2,32.0,75,30.08,10.0,WNW,6.9,-,0.02,,Clear,290,2014-04-03 11:55:00
8:15 AM,39.2,32.0,75,30.09,10.0,NW,8.1,-,N/A,,Clear,310,2014-04-03 12:15:00
8:35 AM,41.0,30.2,65,30.09,10.0,NW,9.2,-,N/A,,Clear,310,2014-04-03 12:35:00
8:55 AM,41.0,32.0,70,30.09,10.0,NNW,8.1,-,N/A,,Clear,330,2014-04-03 12:55:00
9:15 AM,41.0,32.0,70,30.09,10.0,NNW,8.1,-,N/A,,Clear,330,2014-04-03 13:15:00
9:35 AM,41.0,33.8,76,30.09,10.0,North,9.2,-,N/A,,Clear,350,2014-04-03 13:35:00
9:55 AM,41.0,30.2,65,30.10,10.0,North,12.7,-,N/A,,Clear,350,2014-04-03 13:55:00
10:15 AM,37.4,33.8,87,30.10,1.5,North,12.7,-,N/A,,Mostly Cloudy,10,2014-04-03 14:15:00
10:35 AM,37.4,33.8,87,30.11,3.0,North,13.8,17.3,N/A,,Overcast,360,2014-04-03 14:35:00
10:55 AM,37.4,33.8,87,30.11,8.0,North,12.7,16.1,N/A,,Overcast,350,2014-04-03 14:55:00
11:55 AM,39.2,33.8,81,30.11,10.0,North,11.5,-,0.01,,Clear,350,2014-04-03 15:55:00
12:15 PM,39.2,33.8,81,30.11,10.0,North,10.4,-,N/A,,Clear,350,2014-04-03 16:15:00
12:35 PM,39.2,33.8,81,30.11,10.0,North,11.5,-,N/A,,Clear,350,2014-04-03 16:35:00
12:55 PM,41.0,33.8,76,30.11,10.0,NNE,9.2,-,N/A,,Clear,20,2014-04-03 16:55:00
1:15 PM,41.0,33.8,76,30.10,10.0,NNE,9.2,-,N/A,,Clear,20,2014-04-03 17:15:00
1:35 PM,42.8,33.8,70,30.09,10.0,NE,9.2,-,N/A,,Clear,50,2014-04-03 17:35:00
1:55 PM,42.8,32.0,66,30.09,10.0,ENE,9.2,-,0.01,,Clear,60,2014-04-03 17:55:00
2:15 PM,42.8,32.0,66,30.09,10.0,NE,11.5,-,N/A,,Clear,50,2014-04-03 18:15:00
2:35 PM,42.8,33.8,70,30.08,10.0,NE,12.7,-,N/A,,Clear,50,2014-04-03 18:35:00
2:55 PM,42.8,35.6,76,30.08,10.0,NE,12.7,16.1,N/A,,Clear,50,2014-04-03 18:55:00
3:15 PM,44.6,33.8,66,30.07,10.0,ENE,11.5,17.3,N/A,,Clear,60,2014-04-03 19:15:00
3:35 PM,44.6,33.8,66,30.07,10.0,ENE,11.5,17.3,0.02,,Clear,60,2014-04-03 19:35:00
3:55 PM,42.8,32.0,66,30.07,10.0,ENE,11.5,-,0.02,,Clear,60,2014-04-03 19:55:00
4:15 PM,42.8,32.0,66,30.07,10.0,ENE,11.5,17.3,N/A,,Clear,60,2014-04-03 20:15:00
4:35 PM,42.8,32.0,66,30.07,10.0,ENE,9.2,-,N/A,,Clear,70,2014-04-03 20:35:00
4:55 PM,42.8,30.2,61,30.08,10.0,East,10.4,-,N/A,,Clear,100,2014-04-03 20:55:00
5:15 PM,42.8,28.4,57,30.08,10.0,East,10.4,-,N/A,,Clear,80,2014-04-03 21:15:00
5:35 PM,42.8,28.4,57,30.09,10.0,East,10.4,-,0.01,,Clear,90,2014-04-03 21:35:00
5:55 PM,42.8,28.4,57,30.09,10.0,ESE,6.9,-,0.01,,Clear,110,2014-04-03 21:55:00
6:15 PM,42.8,26.6,53,30.09,10.0,East,8.1,-,N/A,,Clear,100,2014-04-03 22:15:00
6:35 PM,41.0,26.6,57,30.10,10.0,ESE,5.8,-,N/A,,Clear,110,2014-04-03 22:35:00
6:55 PM,39.2,26.6,61,30.10,10.0,East,5.8,-,0.01,,Clear,100,2014-04-03 22:55:00
7:15 PM,39.2,28.4,65,30.10,10.0,ESE,4.6,-,N/A,,Clear,110,2014-04-03 23:15:00
7:35 PM,37.4,28.4,70,30.10,10.0,ESE,3.5,-,N/A,,Clear,110,2014-04-03 23:35:00
7:55 PM,35.6,28.4,75,30.11,10.0,SE,3.5,-,0.01,,Clear,140,2014-04-03 23:55:00
8:15 PM,33.8,26.6,75,30.12,10.0,SSE,3.5,-,N/A,,Clear,160,2014-04-04 00:15:00
8:35 PM,33.8,28.4,81,30.12,10.0,South,4.6,-,N/A,,Clear,190,2014-04-04 00:35:00
8:55 PM,32.0,26.6,80,30.12,10.0,Calm,Calm,-,N/A,,Clear,0,2014-04-04 00:55:00
9:15 PM,30.2,28.4,93,30.11,10.0,Calm,Calm,-,N/A,,Clear,0,2014-04-04 01:15:00
9:35 PM,32.0,28.4,87,30.12,10.0,Calm,Calm,-,N/A,,Clear,0,2014-04-04 01:35:00
9:55 PM,30.2,26.6,86,30.12,10.0,Calm,Calm,-,N/A,,Clear,0,2014-04-04 01:55:00
10:15 PM,30.2,28.4,93,30.13,10.0,Calm,Calm,-,N/A,,Clear,0,2014-04-04 02:15:00
10:35 PM,30.2,24.8,80,30.14,10.0,Calm,Calm,-,N/A,,Clear,0,2014-04-04 02:35:00
11:55 PM,32.0,28.4,87,30.15,10.0,Calm,Calm,-,0.01,,Clear,0,2014-04-04 03:55:00